Air Resources Laboratory banner image
Air Resources Laboratory web site National Oceanic and Atmospheric Administration (NOAA)

al roundup


Office: HUN

ASUS44 KHUN 231810
RWRHUN

WEATHER ROUNDUP FOR THE TENNESSEE VALLEY
NATIONAL WEATHER SERVICE HUNTSVILLE AL
100 PM CDT WED MAY 23 2018

ALZ001>004-231900-
NORTHWEST ALABAMA

CITY           SKY/WX    TMP DP  RH WIND       PRES   REMARKS
COURTLAND HCN    N/A     84 N/A N/A E3          N/A
RUSSELLVILLE     N/A     84 N/A N/A MISG        N/A
SHOALS AIRPORT FAIR      87  67  51 NE7       30.10F HX  90
6HR MIN TEMP:  72; 6HR MAX TEMP:  87;

SHOALS TVA RES   N/A     86 N/A N/A MISG        N/A
$$

ALZ005>007-016-231900-
NORTH CENTRAL ALABAMA

CITY           SKY/WX    TMP DP  RH WIND       PRES   REMARKS
CULLMAN AG STN   N/A     82 N/A N/A CALM        N/A
DECATUR AP     FAIR      85  68  56 N6        30.10F
6HR MIN TEMP:  70; 6HR MAX TEMP:  85;

HUNTSVILLE AP  PTSUNNY   86  69  56 N5        30.09F HX  90
6HR MIN TEMP:  71; 6HR MAX TEMP:  86;

MERIDIANVILLE  MOSUNNY   84  67  57 NE5       30.10F
REDSTONE ARSN  PTSUNNY   85  68  56 E6        30.08F
VINEMONT AP    FAIR      84  67  55 NE8       30.13F
$$

ALZ008>010-231900-
NORTHEAST ALABAMA

CITY           SKY/WX    TMP DP  RH WIND       PRES   REMARKS
ALBERTVILLE    FAIR      81  73  78 NE5       30.10F
FORT PAYNE     FAIR      82  64  54 NE7       30.08F
SCOTTSBORO AP    N/A     86  70  58 NE5G12    30.09F HX  90
SCOTTSBORO HCN   N/A     82 N/A N/A MISG        N/A
VALLEY HEAD      N/A     81 N/A N/A MISG        N/A
$$

TNZ076-096-097-231900-
SOUTHEASTERN MIDDLE TENNESSEE

CITY           SKY/WX    TMP DP  RH WIND       PRES   REMARKS
TULLAHOMA      SUNNY     82  66  57 CALM      30.11F
WINCHESTER     PTSUNNY   84  64  51 CALM      30.11F
$$

...SURROUNDING SITES...

CITY           SKY/WX    TMP DP  RH WIND       PRES   REMARKS
ATLANTA        PTSUNNY   78  67  68 N8        30.08F
ANNISTON       PTSUNNY   82  68  62 N8        30.09F
BIRMINGHAM     PTSUNNY   83  71  67 N8        30.10F
CHATTANOOGA    PTSUNNY   86  64  47 NE10      30.09F
CORINTH          N/A     86  68  54 NE5       30.09F
DALTON         FAIR      82  70  65 NW12      30.09F
GADSDEN        PTSUNNY   84  73  69 VRB3      30.09F HX  90
GOLDEN TRNGL   FAIR      89  70  53 NW8       30.07F HX  94
HALEYVILLE     PTSUNNY   84  72  67 N8        30.12F
JACKSON TN     FAIR      86  72  62 E8        30.11F HX  92
MEMPHIS        PTSUNNY   86  70  58 NE6       30.09F HX  90
NASHVILLE      FAIR      86  66  51 N9        30.11F
ROME           FAIR      86  70  58 N9        30.07F HX  90
SAVANNAH       MOSUNNY   86  70  58 N6        30.09F HX  90
SELMER         PTSUNNY   84  70  61 NE6       30.10F
TUPELO         FAIR      87  67  51 N8        30.08F HX  90
TUSCALOOSA     FAIR      90  70  51 N8        30.05F HX  95
$$

...GULF COAST WEATHER...

CITY           SKY/WX    TMP DP  RH WIND       PRES   REMARKS
GULFPORT       FAIR      85  73  67 N3        30.06F HX  91
PASCAGOULA     CLOUDY    83  69  62 W8        30.07S THUNDER
MOBILE         PTSUNNY   85  69  58 E3        30.07F
GULF SHORES    FAIR      81  72  75 CALM      30.07F
PENSACOLA      PTSUNNY   85  71  63 S12       30.07  THUNDER HX  90
DESTIN         LGT RAIN  78  71  79 CALM      30.08F
PANAMA CITY    MOSUNNY   83  75  76 S13       30.08F HX  91
APPALACHICOLA  FAIR      84  75  74 S14       30.09F HX  92
$$





Office: BMX ASUS44 KBMX 231810 RWRAL ALABAMA REGIONAL WEATHER ROUNDUP NATIONAL WEATHER SERVICE BIRMINGHAM AL 100 PM CDT WED MAY 23 2018 NOTE: "FAIR" INDICATES FEW OR NO CLOUDS BELOW 12,000 FEET WITH NO SIGNIFICANT WEATHER AND/OR OBSTRUCTIONS TO VISIBILITY. THE REMARK "TC" DENOTES TEMPERATURE IN DEGREES CELSIUS. ALZ001>011-014-016>018-020-231900- NORTH ALABAMA CITY SKY/WX TMP DP RH WIND PRES REMARKS MUSCLE SHOALS FAIR 87 67 51 NE7 30.10F HX 90 6HR MIN TEMP: 72; 6HR MAX TEMP: 87; HUNTSVILLE PTSUNNY 86 69 56 N5 30.09F HX 90 6HR MIN TEMP: 71; 6HR MAX TEMP: 86; DECATUR FAIR 85 68 56 N6 30.10F 6HR MIN TEMP: 70; 6HR MAX TEMP: 85; HALEYVILLE PTSUNNY 84 72 67 N8 30.12F 6HR MIN TEMP: 69; 6HR MAX TEMP: 86; GADSDEN PTSUNNY 84 73 69 VRB3 30.09F HX 90 6HR MIN TEMP: 71; 6HR MAX TEMP: 84; $$ ALZ012-013-022-023-030>036-040>044-231900- WEST CENTRAL ALABAMA CITY SKY/WX TMP DP RH WIND PRES REMARKS TUSCALOOSA FAIR 90 70 51 N8 30.05F HX 95 6HR MIN TEMP: 72; 6HR MAX TEMP: 90; DEMOPOLIS HVY RAIN 78 68 70 E3 30.07S VSB 3/4 6HR MIN TEMP: 71; 6HR MAX TEMP: 87; $$ ALZ015-024>026-033>036-041>044-231900- CENTRAL ALABAMA CITY SKY/WX TMP DP RH WIND PRES REMARKS BIRMINGHAM PTSUNNY 83 71 67 N8 30.10F 6HR MIN TEMP: 76; 6HR MAX TEMP: 84; MONTGOMERY FAIR 83 73 72 SW7 30.06F 6HR MIN TEMP: 72; 6HR MAX TEMP: 87; 6HR PCP: TRACE; SHELBY CO ARPT FAIR 82 69 64 CALM 30.08F 6HR MIN TEMP: 71; 6HR MAX TEMP: 83; MAXWELL AFB CLOUDY 81 71 71 N5 30.05F 6HR MIN TEMP: 72; 6HR MAX TEMP: 83; 6HR PCP: TRACE; GREENVILLE NOT AVBL SELMA FAIR 79 68 69 W6 30.07F PRATTVILLE FAIR 78 71 80 W7 30.06F 6HR MIN TEMP: 70; 6HR MAX TEMP: 82; 6HR PCP: 0.02; BESSEMER FAIR 78 72 81 E5 30.10F 6HR MIN TEMP: 70; 6HR MAX TEMP: 80; 6HR PCP: 0.43; TALLADEGA FAIR 83 70 64 NE6 30.09F 6HR MIN TEMP: 71; 6HR MAX TEMP: 83; PELL CITY PTCLDY 82 73 74 NE5G12 30.09F MARION LGT RAIN 73 71 93 CALM 30.07S 6HR MIN TEMP: 70; 6HR MAX TEMP: 85; 6HR PCP: 0.01; SYLACAUGA FAIR 81 71 71 NE5 30.09F 6HR MIN TEMP: 71; 6HR MAX TEMP: 82; $$ ALZ019-021-028-029-037-038-045>048-231900- EAST CENTRAL ALABAMA CITY SKY/WX TMP DP RH WIND PRES REMARKS ANNISTON PTSUNNY 82 68 62 N8 30.09F 6HR MIN TEMP: 71; 6HR MAX TEMP: 83; ALEXANDER CITY FAIR 82 74 75 NW10 30.08F 6HR MIN TEMP: 70; 6HR MAX TEMP: 82; AUBURN PTSUNNY 81 70 69 CALM 30.08F 6HR MIN TEMP: 72; 6HR MAX TEMP: 81; $$ ALZ051>064-231900- SOUTHWEST ALABAMA CITY SKY/WX TMP DP RH WIND PRES REMARKS MOBILE PTSUNNY 85 69 58 E3 30.07F 6HR MIN TEMP: 74; 6HR MAX TEMP: 88; BROOKLEY FIELD FAIR 88 72 58 SE7 30.08S HX 94 6HR MIN TEMP: 77; 6HR MAX TEMP: 90; EVERGREEN FAIR 89 70 53 N7 30.05F HX 94 6HR MIN TEMP: 71; 6HR MAX TEMP: 91; 6HR PCP: TRACE; $$ ALZ049-050-065>069-231900- SOUTHEAST ALABAMA CITY SKY/WX TMP DP RH WIND PRES REMARKS DOTHAN TSTM 72 69 90 N3 30.12R VSB 1/2 6HR MIN TEMP: 73; 6HR MAX TEMP: 85; 6HR PCP: 1.71; OZARK FAIR 75 72 88 SW7 30.07S 6HR MIN TEMP: 73; 6HR MAX TEMP: 86; 6HR PCP: 0.22; TROY FAIR 88 69 53 N10 30.06F HX 92 6HR MIN TEMP: 73; 6HR MAX TEMP: 88; 6HR PCP: TRACE; EUFAULA FAIR 77 73 87 VRB3 30.06F 6HR MIN TEMP: 72; 6HR MAX TEMP: 80; 6HR PCP: 0.41; $$